Regional Weather Roundup
Issued by NWS Kansas City/Pleasant Hill, MO

Home | Current Version | Previous Version | Graphics & Text | Print | Product List | Glossary Off
Versions: 1 2 3 4 5 6 7 8 9 10 11 12 13 14 15 16 17 18 19 20 21 22 23 24 25 26 27 28 29 30 31 32 33 34 35 36 37 38 39 40 41 42 43 44 45 46 47 48 49 50

000
ASUS43 KEAX 152011
RWREAX

WEATHER ROUNDUP FOR EASTERN KANSAS AND NORTHWEST MISSOURI
NATIONAL WEATHER SERVICE KANSAS CITY/PLEASANT HILL MO
300 PM CDT MON SEP 15 2014

KSZ040-057-103>105-MOZ028-029-037-043-152100-
...KANSAS CITY METROPOLITAN AREA...

CITY           SKY/WX    TMP DP  RH WIND       PRES   REMARKS
K.C. INTL      CLOUDY    65  61  87 N12G21    30.14S
K.C. DOWNTOWN  CLOUDY    69  61  75 N8        30.13S
LEES SUMMIT    CLOUDY    67  63  87 N13       30.14R
OLATHE - IXD   CLOUDY    66  63  90 N14       30.15R
OLATHE - OJC   CLOUDY    66  63  90 N13       30.13R
LAWRENCE       CLOUDY    68  59  73 N8        30.15R

$$

MOZ001>008-011>017-020>025-030>033-038>040-044>046-053-054-152100-
...NORTHERN AND CENTRAL MISSOURI...

CITY           SKY/WX    TMP DP  RH WIND       PRES   REMARKS
ST. JOSEPH     PTSUNNY   68  59  73 N17G23    30.16R
MOSBY          CLOUDY    68  61  77 NW6       30.13R
WHITEMAN AFB   CLOUDY    69  66  93 NW10      30.10R
CLINTON        CLOUDY    75  68  78 NW12G17   30.09S
SEDALIA        CLOUDY    69  66  90 NW9       30.10R FOG
WARSAW         NOT AVBL
MARSHALL       CLOUDY    68  66  94 N9        30.11R FOG
CHILLICOTHE      N/A     69  62  78 VRB5      30.13S
KIRKSVILLE     CLOUDY    64  59  83 N10       30.11R

$$

MOZ041-047>049-056>058-063>065-088>090-097-152100-
...EASTERN AND SOUTHERN MISSOURI...

CITY           SKY/WX    TMP DP  RH WIND       PRES   REMARKS
ST. LOUIS INTL CLOUDY    76  65  68 W13       30.04F
SPIRIT OF STL  CLOUDY    72  66  81 NW7       30.04S FOG
COLUMBIA       CLOUDY    70  66  87 NW15      30.07S
JEFFERSON CITY CLOUDY    75  67  76 NW12      30.05S
MEXICO         CLOUDY    72  72 100 NW10G17   30.06
HANNIBAL       CLOUDY    64  61  88 NW12      30.08R
ROLLA          CLOUDY    77  65  66 W15G21    30.05S
LEBANON        MOSUNNY   81  64  57 W15G21    30.08F
OSAGE BEACH    CLOUDY    79  66  65 W8        30.06F
SPRINGFIELD    MOSUNNY   84  65  52 SW14      30.09F
BRANSON        MOSUNNY   81  66  61 NW10      30.14F
JOPLIN         PTSUNNY   82  67  60 SW12G21   30.11S
WEST PLAINS    PTSUNNY   77  65  66 SW12      30.12F

$$

IAZ060-094-KSZ022-034>040-054-083-096-NEZ052-066-093-152100-
...KANSAS...SOUTHEAST NEBRASKA AND IOWA...

CITY           SKY/WX    TMP DP  RH WIND       PRES   REMARKS
TOPEKA         CLOUDY    69  62  78 N8        30.17R
MANHATTAN      CLOUDY    70  58  65 N9        30.17F
EMPORIA        CLOUDY    67  63  87 N15G21    30.15R
CHANUTE        CLOUDY    85  65  51 W15       30.07F
WICHITA        PTSUNNY   81  63  54 N16       30.11R
OMAHA          MOSUNNY   63  47  55 N18G24    30.24R
LINCOLN        PTSUNNY   65  47  52 NE16      30.24F
FALLS CITY     PTSUNNY   68  53  58 N16G24    30.19R
LAMONI         CLOUDY    60  53  77 N18G25    30.17R
DES MOINES     PTSUNNY   64  51  62 N12       30.18S

$$



USA.gov is the U.S. government's official web portal to all federal, state and local government web resources and services.